Akron Canton, OH

4:54 AM EDT on July 27, 2017 (GMT -0400)
Akron-Canton Regional

Weather History for KCAK - October, 2012

Change the Weather History Date:

Friday, October 26, 2012

  Actual Average Record
Temperature  
Mean Temperature 56 °F 48 °F  
Max Temperature 64 °F 58 °F 80 °F (1963)
Min Temperature 48 °F 40 °F 21 °F (1887)
Degree Days  
Heating Degree Days 9 16  
Month to date heating degree days 276 329  
Since 1 July heating degree days 423 468  
Cooling Degree Days 0 0  
Month to date cooling degree days 8 3  
Year to date cooling degree days 1046 649  
Growing Degree Days 6 (Base 50)    
Moisture  
Dew Point 46 °F    
Average Humidity 69    
Maximum Humidity 86    
Minimum Humidity 52    
Precipitation  
Precipitation 0.02 in 0.09 in 0.87 in (2010)
Month to date precipitation 1.73 2.35  
Year to date precipitation 29.41 33.00  
Snow  
Snow 0.00 in 0.00 in - ()
Month to date snowfall 0.0 0.2  
Since 1 July snowfall 0.0 0.2  
Since 1 September snowfall 0.0 0.2  
Snow Depth 0.00 in    
Sea Level Pressure  
Sea Level Pressure 30.08 in    
Wind  
Wind Speed 11 mph (North)    
Max Wind Speed 18 mph    
Max Gust Speed 26 mph    
Visibility 8 miles    
Events Rain    
T = Trace of Precipitation, MM = Missing Value Source: NWS Daily Summary

Daily Weather History Graph

Daily Weather History Graph

Search for Another Location

Airport or City:

Trip Planner

Search our weather history database for the weather conditions in past years. The results will help you decide how hot, cold, wet, or windy it might be!

Date:

Astronomy

Oct. 26, 2012 Rise Set
Actual Time 7:50 AM EDT 6:28 PM EDT
Civil Twilight 7:21 AM EDT 6:56 PM EDT
Nautical Twilight 6:49 AM EDT 7:29 PM EDT
Astronomical Twilight 6:17 AM EDT 8:00 PM EDT
Moon 4:44 PM EDT (10/26) 4:43 AM EDT (10/26)
Length of Visible Light 11h 35m
Length of Day
10h 38m
Waxing Gibbous, 91% of the Moon is Illuminated
Oct 26
Waxing Gibbous
Oct 29
Full
Nov 6
Last Quarter
Nov 13
New
Nov 20
First Quarter

Hourly Weather History & Observations

Time (EDT) Temp. Dew Point Humidity Pressure Visibility Wind Dir Wind Speed Gust Speed Precip Events Conditions
12:51 AM 62.1 °F 46.0 °F 56% 29.97 in 9.0 mi South 10.4 mph - N/A   Scattered Clouds
1:51 AM 61.0 °F 46.0 °F 58% 29.97 in 9.0 mi South 10.4 mph - N/A   Scattered Clouds
2:51 AM 61.0 °F 46.0 °F 58% 29.98 in 9.0 mi SSW 8.1 mph - N/A   Scattered Clouds
3:51 AM 62.1 °F 45.0 °F 53% 29.99 in 9.0 mi South 11.5 mph - N/A   Scattered Clouds
4:51 AM 57.9 °F 44.1 °F 60% 30.00 in 9.0 mi South 5.8 mph - N/A   Scattered Clouds
5:51 AM 57.0 °F 45.0 °F 64% 30.01 in 9.0 mi SSE 5.8 mph - N/A   Partly Cloudy
6:51 AM 57.0 °F 45.0 °F 64% 30.03 in 9.0 mi SSE 6.9 mph - N/A   Partly Cloudy
7:51 AM 57.9 °F 46.0 °F 65% 30.05 in 10.0 mi South 5.8 mph - N/A   Mostly Cloudy
8:51 AM 60.1 °F 48.0 °F 64% 30.06 in 7.0 mi South 4.6 mph - N/A   Mostly Cloudy
9:51 AM 64.0 °F 46.9 °F 54% 30.08 in 8.0 mi West 10.4 mph - N/A   Scattered Clouds
10:51 AM 63.0 °F 51.1 °F 65% 30.10 in 7.0 mi NNW 9.2 mph - N/A   Scattered Clouds
11:32 AM 60.8 °F 51.8 °F 72% 30.12 in 7.0 mi NW 12.7 mph 18.4 mph N/A   Mostly Cloudy
11:51 AM 59.0 °F 48.9 °F 69% 30.12 in 8.0 mi NNW 10.4 mph - N/A   Mostly Cloudy
12:51 PM 57.0 °F 48.9 °F 74% 30.12 in 7.0 mi NNW 11.5 mph - N/A   Overcast
1:15 PM 55.4 °F 48.2 °F 77% 30.12 in 7.0 mi North 12.7 mph - N/A   Overcast
1:51 PM 55.0 °F 48.0 °F 77% 30.11 in 8.0 mi NNE 13.8 mph - N/A   Overcast
2:51 PM 54.0 °F 46.9 °F 77% 30.10 in 8.0 mi North 12.7 mph - N/A   Overcast
3:31 PM 53.6 °F 46.4 °F 77% 30.10 in 7.0 mi North 10.4 mph - N/A   Overcast
3:51 PM 53.1 °F 48.0 °F 83% 30.10 in 7.0 mi North 13.8 mph 19.6 mph N/A   Overcast
4:51 PM 53.1 °F 46.0 °F 77% 30.11 in 9.0 mi North 16.1 mph 21.9 mph N/A   Overcast
5:34 PM 51.8 °F 46.4 °F 82% 30.11 in 2.0 mi North 15.0 mph - N/A   Overcast
5:51 PM 50.0 °F 46.0 °F 86% 30.12 in 2.0 mi North 15.0 mph 24.2 mph N/A   Overcast
6:09 PM 50.0 °F 46.4 °F 87% 30.12 in 3.0 mi North 15.0 mph - N/A   Overcast
6:51 PM 50.0 °F 45.0 °F 83% 30.13 in 10.0 mi NNE 13.8 mph - N/A   Overcast
7:51 PM 50.0 °F 45.0 °F 83% 30.14 in 10.0 mi North 15.0 mph - N/A   Overcast
8:51 PM 50.0 °F 44.1 °F 80% 30.14 in 10.0 mi NNE 11.5 mph 19.6 mph N/A   Overcast
9:51 PM 48.9 °F 44.1 °F 83% 30.12 in 10.0 mi NNE 16.1 mph - N/A   Overcast
10:51 PM 48.9 °F 44.1 °F 83% 30.12 in 10.0 mi NNE 16.1 mph - N/A   Overcast
11:51 PM 48.0 °F 44.1 °F 86% 30.12 in 4.0 mi NNE 12.7 mph - 0.01 in Rain Light Rain